DECAYED

CZ-2D DEB, 35273 (Decayed)

Orbit data source: Space-Track

CZ-2D DEB, 35273 was space debris in LEO originally from a launch on Tue, 05 Jul 2005 UTC launched from the Jiuquan Satellite Launch Center, China (JSC). Debris objects in space refer to the collection of defunct objects orbiting the Earth. Examples of debris include non-operational satellites, rocket bodies, and fragments generated from explosions, collisions, or faulty payload assembly.

Not visible in the next 10 days
Identifier
35273, 2005-024M
Orbit
Decayed
Country
Flag of CNCN / PRC
Related business
Manufacturer
Unknown
Mission
Decayed spacecraft
Bus & Motor
Unknown
Mass
Unknown
Launch date (UTC)
2005-07-05 (21 years ago)
Launch vehicle
Unknown
Launch site
Jiuquan Satellite Launch Center, China (JSC)
Object type
Payload
Rocket body
Debris
Shape & HBR
Unknown shape, 0.1 m
Radar Cross Section
Small (<0.1 m²)

Expand to show TLE details & history
Last TLE update: 8 months ago

TLE from 8 months ago
0 CZ-2D DEB
1 35273U 05024M   26006.36675414  .01374738  22730-5  74163-3 0  9997
2 35273  97.1259  48.6779 0002279 240.2528 119.8535 16.19853783153236
Epoch: 2026-01-06T08:48Z
TLE epoch observation values (Epoch: 2026-01-06T08:48:07.557Z)
Latitude
-0.00003°
Longitude
170.69583°
Altitude
223.93 km
Speed
7.772 km/s
True Right ascension
03h 14m 42s
True Declination
0° 00' 00"
Sunlit
Object was in full shadow at epoch
Visualization orbit readout
Latitude
Unknown
Longitude
Unknown
Altitude
Unknown
Speed
Unknown
Apparent Right ascension
Unknown
Apparent Declination
Unknown
Sunlit
N/A
Visualization observer readout
Local Sidereal Time
15:26:34
Azimuth
Unknown
Elevation
Unknown
Doppler factor
Unknown
Orbital elements
Apogee altitude
218.274 km
Perigee altitude
215.268 km
Semi-major axis
6,594.908 km
Eccentricity
0.00023
Inclination
97.1259°
RAAN
48.6779°
Arg. of periapsis
240.2528°
True anomaly
119.87615°
Mean anomaly
119.8535°
Eccentric anomaly
119.86482°
Mean motion
4.05257 °/min
Orbital period
88.83 mins
BSTAR
0.00074163
Loading maneuver chart data...
Computing Atmospheric mass density...
Loading historical data...
Loading historical data...
Loading historical data...
Loading historical data...
Loading historical data...
Loading historical data...
Loading historical data...

Documentation

Showing up to 5 results
|